FW7447 Weather Reports


Display with metric or nautical units.
time (UTC)temp
F
wind
direction
speed
MPH
gust
MPH
rain 1hr
in
rain 24hr
in
rain mn
in
humidity
%
barometer
mb
20260510181548 81 107 4.0 8.0 0.00 0.00 0.00 29 1016.2
20260510180053 81 225 4.0 10.0 0.00 0.00 0.00 28 1016.4
20260510174545 81 190 4.0 12.0 0.00 0.00 0.00 32 1016.6
20260510173044 79 171 3.0 8.0 0.00 0.00 0.00 31 1016.7
20260510171543 79 291 2.0 8.0 0.00 0.00 0.00 34 1017.0
20260510170043 79 328 1.0 6.0 0.00 0.00 0.00 35 1016.9
20260510164553 79 240 2.0 6.0 0.00 0.00 0.00 30 1017.2
20260510163045 79 269 3.0 8.0 0.00 0.00 0.00 32 1017.1
20260510161544 78 119 3.0 8.0 0.00 0.00 0.00 32 1017.3
20260510160043 77 259 1.0 6.0 0.00 0.00 0.00 34 1017.4
20260510154549 77 255 2.0 6.0 0.00 0.00 0.00 39 1017.4
20260510153040 75 42 3.0 9.0 0.00 0.00 0.00 41 1017.4
20260510151553 74 296 3.0 8.0 0.00 0.00 0.00 43 1017.5
20260510150046 74 282 1.0 7.0 0.00 0.00 0.00 50 1017.6
20260510144600 73 315 3.0 7.0 0.00 0.00 0.00 49 1017.5
20260510143055 72 279 1.0 5.0 0.00 0.00 0.00 55 1017.4
20260510141541 72 242 3.0 7.0 0.00 0.00 0.00 56 1017.5
20260510140048 70 225 1.0 4.0 0.00 0.00 0.00 63 1017.5
20260510134545 69 0 0.0 2.0 0.00 0.00 0.00 69 1017.6
20260510133044 67 0 0.0 2.0 0.00 0.00 0.00 76 1017.5
20260510131549 65 0 0.0 3.0 0.00 0.00 0.00 78 1017.4
20260510130042 63 0 1.0 3.0 0.00 0.00 0.00 81 1017.3
20260510124544 61 200 2.0 4.0 0.00 0.00 0.00 86 1017.2
20260510123051 59 236 0.0 5.0 0.00 0.00 0.00 90 1017.2
20260510121544 57 222 2.0 4.0 0.00 0.00 0.00 95 1017.1
20260510120045 55 214 0.0 3.0 0.00 0.00 0.00 97 1016.8
20260510114544 54 0 0.0 2.0 0.00 0.00 0.00 96 1016.7
20260510113039 53 212 0.0 2.0 0.00 0.00 0.00 96 1016.5
20260510111545 53 0 0.0 4.0 0.00 0.00 0.00 96 1015.9
20260510110045 52 240 0.0 2.0 0.00 0.00 0.00 96 1015.7
20260510104545 52 0 0.0 2.0 0.00 0.00 0.00 96 1015.5
20260510103040 52 0 0.0 2.0 0.00 0.00 0.00 95 1015.3
20260510101538 52 0 0.0 0.0 0.00 0.00 0.00 95 1015.0
20260510100045 52 0 0.0 0.0 0.00 0.00 0.00 95 1015.0
20260510094549 53 0 0.0 0.0 0.00 0.00 0.00 95 1014.7
20260510093046 54 0 0.0 0.0 0.00 0.00 0.00 95 1014.6
20260510091543 54 0 0.0 0.0 0.00 0.00 0.00 95 1014.4
20260510090041 54 0 0.0 0.0 0.00 0.00 0.00 95 1014.4
20260510084546 54 0 0.0 0.0 0.00 0.00 0.00 95 1014.3
20260510083044 55 0 0.0 0.0 0.00 0.00 0.00 95 1014.2
20260510081543 55 0 0.0 2.0 0.00 0.00 0.00 94 1014.0
20260510080053 55 0 0.0 3.0 0.00 0.00 0.00 94 1013.9
20260510074548 56 0 0.0 1.0 0.00 0.00 0.00 94 1013.7
20260510073037 56 0 0.0 2.0 0.00 0.00 0.00 94 1013.6
20260510071546 56 0 0.0 2.0 0.00 0.00 0.00 94 1013.6
20260510070051 57 192 0.0 2.0 0.00 0.00 0.00 94 1013.3
20260510064600 57 192 1.0 3.0 0.00 0.00 0.00 94 1013.4
20260510063041 58 0 0.0 0.0 0.00 0.00 0.00 93 1013.4
20260510061539 58 0 0.0 0.0 0.00 0.00 0.00 92 1013.4
20260510060038 58 0 0.0 0.0 0.00 0.00 0.00 92 1013.5
20260510054547 59 0 0.0 0.0 0.00 0.00 0.00 92 1013.7
20260510053047 59 0 0.0 0.0 0.00 0.00 0.00 92 1013.6
20260510051551 60 0 0.0 0.0 0.00 0.00 0.00 91 1013.9
20260510050041 60 0 0.0 0.0 0.00 0.00 0.00 91 1013.9
20260510044543 60 0 0.0 0.0 0.00 0.00 0.00 91 1013.8
20260510043039 61 0 0.0 0.0 0.00 0.00 0.00 90 1014.0
20260510041544 61 0 0.0 0.0 0.00 0.00 0.00 89 1013.6
20260510040048 62 0 0.0 0.0 0.00 0.00 0.00 88 1013.7
20260510034604 62 0 0.0 0.0 0.00 0.00 0.00 88 1014.0
20260510033050 62 0 0.0 0.0 0.00 0.00 0.00 87 1013.8
20260510031540 63 0 0.0 2.0 0.00 0.00 0.00 87 1013.8
20260510030044 63 0 1.0 2.0 0.00 0.00 0.00 86 1013.6
20260510024547 63 192 1.0 2.0 0.00 0.00 0.00 86 1013.7
20260510023043 64 0 0.0 0.0 0.00 0.00 0.00 84 1013.6
20260510021539 64 0 0.0 0.0 0.00 0.00 0.00 83 1013.4
20260510020045 65 0 0.0 0.0 0.00 0.00 0.00 82 1013.1
20260510014550 65 0 0.0 0.0 0.00 0.00 0.00 81 1013.0
20260510013044 66 0 0.0 2.0 0.00 0.00 0.00 80 1012.8
20260510011544 66 0 0.0 4.0 0.00 0.00 0.00 80 1012.8
20260510010045 66 194 0.0 4.0 0.00 0.00 0.00 78 1012.6
20260510004536 67 0 0.0 2.0 0.00 0.00 0.00 77 1012.3
20260510003101 67 0 2.0 5.0 0.00 0.00 0.00 76 1012.0
20260510001544 68 0 0.0 5.0 0.00 0.00 0.00 75 1011.6
20260510000050 69 146 3.0 8.0 0.00 0.00 0.00 74 1011.4
20260509234545 69 178 1.0 6.0 0.00 0.00 0.00 73 1011.3
20260509233039 70 0 2.0 7.0 0.00 0.00 0.00 72 1011.1
20260509231545 70 158 3.0 8.0 0.00 0.00 0.00 70 1011.0
20260509230044 71 181 4.0 10.0 0.00 0.00 0.00 69 1011.0
20260509224543 72 175 3.0 10.0 0.00 0.00 0.00 68 1010.9
20260509223045 72 167 3.0 11.0 0.00 0.00 0.00 68 1010.7
20260509221540 73 172 5.0 12.0 0.00 0.00 0.00 66 1010.5
20260509220047 74 175 4.0 12.0 0.00 0.00 0.00 66 1010.2
20260509214558 73 155 3.0 15.0 0.00 0.00 0.00 66 1010.1
20260509213045 73 233 5.0 15.0 0.00 0.00 0.00 64 1010.2
20260509211548 75 220 5.0 16.0 0.00 0.00 0.00 62 1010.1
20260509210047 75 190 3.0 11.0 0.00 0.00 0.00 63 1010.0
20260509204546 74 158 4.0 15.0 0.00 0.00 0.00 64 1010.0
20260509203046 75 238 5.0 17.0 0.00 0.00 0.00 62 1009.9
20260509201545 75 132 2.0 10.0 0.00 0.00 0.00 61 1009.9
20260509200049 75 149 2.0 12.0 0.00 0.00 0.00 60 1009.9
20260509194551 75 171 3.0 12.0 0.00 0.00 0.00 61 1010.1
20260509193042 75 180 3.0 11.0 0.00 0.00 0.00 61 1010.2
20260509191540 75 184 4.0 9.0 0.00 0.00 0.00 60 1010.2
20260509190045 75 163 2.0 11.0 0.00 0.00 0.00 61 1010.2
20260509184547 75 159 3.0 11.0 0.00 0.00 0.00 60 1010.4
20260509183100 75 285 4.0 11.0 0.00 0.00 0.00 61 1010.6